Location: Schommer Observatory
(40.5200°N, 74.4500°W)
Time: 13:05:24
(UTC-05:00)

Envisat - Pass Details

Date: 09 October 2017
Orbit: 764 x 766 km, 98.2° (Epoch: 14 December)

Event Time Altitude Azimuth Distance (km) Brightness Sun altitude
Exits shadow 20:04:34 35° 73° (ENE) 1,223 3.6 -19.4°
Maximum altitude 20:04:44 35° 69° (ENE) 1,221 3.6 -19.4°
Drops below altitude 10° 20:09:19 10° 5° (N) 2,313 5.5 -20.3°
Sets 20:11:47 0° 357° (N) 3,243 6.4 -20.8°
